Volver al catálogo

STARLINK-5473

ActivoComunicacionesVLEO
NORAD 55663·PAYLOAD·🇺🇸 United States

Lanzado Feb 17, 2023 desde Vandenberg Space Force Base

Loading…

Próximos Pases (próximas 24 horas)

TLE

ActualizadoSource: CelesTrak SupGP

Época: Sep 14, 2026, 22:25 UTC

1 55663C 23021AM  26257.93451389 -.00014623  00000+0 -12263-2 0  2577
2 55663  70.0021  47.2867 0003309 267.3000  32.5756 14.98311500    15

Sigue STARLINK-5473 en tiempo real con AllMySat

Download on the App Store